TimeCST,TemperatureF,Dew PointF,Humidity,Sea Level PressureIn,VisibilityMPH,Wind Direction,Wind SpeedMPH,Gust SpeedMPH,PrecipitationIn,Events,Conditions,WindDirDegrees,DateUTC
12:09 AM,21.2,12.2,68,30.46,10.0,Calm,Calm,-,N/A,,Clear,0,2012-11-16 06:09:00
12:30 AM,17.6,10.4,73,30.46,10.0,Calm,Calm,-,N/A,,Clear,0,2012-11-16 06:30:00
12:49 AM,17.6,12.2,79,30.45,10.0,Calm,Calm,-,N/A,,Clear,0,2012-11-16 06:49:00
1:09 AM,15.8,10.4,79,30.45,10.0,SSE,3.5,-,N/A,,Clear,150,2012-11-16 07:09:00
1:30 AM,14.0,10.4,86,30.44,10.0,Calm,Calm,-,N/A,,Clear,0,2012-11-16 07:30:00
1:49 AM,15.8,12.2,86,30.44,10.0,Calm,Calm,-,N/A,,Clear,0,2012-11-16 07:49:00
2:09 AM,15.8,12.2,86,30.44,10.0,Calm,Calm,-,N/A,,Clear,0,2012-11-16 08:09:00
2:30 AM,15.8,12.2,86,30.44,10.0,Calm,Calm,-,N/A,,Clear,0,2012-11-16 08:30:00
2:48 AM,14.0,10.4,86,30.44,10.0,Calm,Calm,-,N/A,,Clear,0,2012-11-16 08:48:00
3:10 AM,12.2,10.4,92,30.46,10.0,Calm,Calm,-,N/A,,Clear,0,2012-11-16 09:10:00
3:29 AM,12.2,10.4,92,30.45,10.0,Calm,Calm,-,N/A,,Clear,0,2012-11-16 09:29:00
3:50 AM,12.2,10.4,92,30.45,10.0,Calm,Calm,-,N/A,,Clear,0,2012-11-16 09:50:00
4:09 AM,12.2,10.4,92,30.45,10.0,Calm,Calm,-,N/A,,Clear,0,2012-11-16 10:09:00
4:29 AM,12.2,10.4,92,30.45,10.0,Calm,Calm,-,N/A,,Clear,0,2012-11-16 10:29:00
4:50 AM,12.2,10.4,92,30.45,10.0,North,3.5,-,N/A,,Clear,10,2012-11-16 10:50:00
5:09 AM,12.2,10.4,92,30.46,10.0,Calm,Calm,-,N/A,,Clear,0,2012-11-16 11:09:00
5:29 AM,10.4,8.6,92,30.45,10.0,Calm,Calm,-,N/A,,Clear,0,2012-11-16 11:29:00
5:49 AM,10.4,8.6,92,30.45,10.0,Calm,Calm,-,N/A,,Clear,0,2012-11-16 11:49:00
6:10 AM,12.2,10.4,92,30.45,10.0,Calm,Calm,-,N/A,,Clear,0,2012-11-16 12:10:00
6:29 AM,12.2,8.6,85,30.45,10.0,Calm,Calm,-,N/A,,Clear,0,2012-11-16 12:29:00
6:49 AM,10.4,8.6,92,30.45,10.0,ENE,3.5,-,N/A,,Clear,70,2012-11-16 12:49:00
7:10 AM,10.4,6.8,85,30.46,10.0,Calm,Calm,-,N/A,,Clear,0,2012-11-16 13:10:00
7:29 AM,10.4,6.8,85,30.46,10.0,Calm,Calm,-,N/A,,Clear,0,2012-11-16 13:29:00
7:49 AM,12.2,10.4,92,30.46,10.0,Calm,Calm,-,N/A,,Clear,0,2012-11-16 13:49:00
8:10 AM,14.0,12.2,93,30.46,10.0,Calm,Calm,-,N/A,,Clear,0,2012-11-16 14:10:00
8:29 AM,19.4,15.8,86,30.46,10.0,Calm,Calm,-,N/A,,Clear,0,2012-11-16 14:29:00
8:49 AM,21.2,17.6,86,30.46,10.0,Calm,Calm,-,N/A,,Clear,0,2012-11-16 14:49:00
9:10 AM,24.8,19.4,80,30.45,10.0,SSE,3.5,-,N/A,,Clear,160,2012-11-16 15:10:00
9:29 AM,26.6,21.2,80,30.46,10.0,South,5.8,-,N/A,,Clear,170,2012-11-16 15:29:00
9:49 AM,28.4,21.2,74,30.46,10.0,SSE,3.5,-,N/A,,Clear,150,2012-11-16 15:49:00
10:10 AM,32.0,23.0,69,30.46,10.0,South,5.8,-,N/A,,Clear,170,2012-11-16 16:10:00
10:29 AM,32.0,23.0,69,30.46,10.0,South,5.8,-,N/A,,Clear,170,2012-11-16 16:29:00
10:49 AM,32.0,23.0,69,30.46,10.0,SSW,11.5,16.1,N/A,,Clear,200,2012-11-16 16:49:00
11:10 AM,33.8,23.0,65,30.46,10.0,South,10.4,-,N/A,,Clear,180,2012-11-16 17:10:00
11:29 AM,33.8,23.0,65,30.46,10.0,South,8.1,-,N/A,,Clear,170,2012-11-16 17:29:00
11:49 AM,35.6,23.0,60,30.45,10.0,SSW,8.1,-,N/A,,Clear,200,2012-11-16 17:49:00
12:10 PM,35.6,23.0,60,30.44,10.0,SSE,8.1,-,N/A,,Clear,150,2012-11-16 18:10:00
12:29 PM,35.6,21.2,56,30.43,10.0,South,9.2,-,N/A,,Clear,180,2012-11-16 18:29:00
12:49 PM,35.6,21.2,56,30.41,10.0,SSE,8.1,-,N/A,,Clear,150,2012-11-16 18:49:00
1:10 PM,35.6,23.0,60,30.41,10.0,South,5.8,-,N/A,,Clear,170,2012-11-16 19:10:00
1:29 PM,35.6,21.2,56,-9999,10.0,SSE,8.1,-,N/A,,Clear,150,2012-11-16 19:29:00
1:50 PM,37.4,21.2,52,30.38,10.0,SE,10.4,-,N/A,,Clear,140,2012-11-16 19:50:00
2:10 PM,35.6,21.2,56,30.36,10.0,SSE,11.5,-,N/A,,Clear,160,2012-11-16 20:10:00
2:30 PM,35.6,21.2,56,30.36,10.0,SSE,8.1,-,N/A,,Clear,150,2012-11-16 20:30:00
2:50 PM,35.6,19.4,52,30.36,10.0,SSE,8.1,-,N/A,,Clear,150,2012-11-16 20:50:00
3:09 PM,35.6,21.2,56,30.35,10.0,SE,8.1,-,N/A,,Clear,140,2012-11-16 21:09:00
3:30 PM,35.6,19.4,52,30.35,10.0,SSE,8.1,-,N/A,,Clear,150,2012-11-16 21:30:00
3:50 PM,35.6,19.4,52,30.35,10.0,SSE,6.9,-,N/A,,Clear,160,2012-11-16 21:50:00
4:09 PM,33.8,17.6,52,30.35,10.0,SSE,6.9,-,N/A,,Clear,160,2012-11-16 22:09:00
4:30 PM,32.0,17.6,55,30.35,10.0,SE,4.6,-,N/A,,Clear,140,2012-11-16 22:30:00
4:50 PM,32.0,17.6,55,30.34,10.0,SSE,5.8,-,N/A,,Clear,150,2012-11-16 22:50:00
5:09 PM,32.0,19.4,60,30.34,10.0,SSE,5.8,-,N/A,,Clear,150,2012-11-16 23:09:00
5:30 PM,32.0,21.2,64,30.34,10.0,SE,3.5,-,N/A,,Clear,130,2012-11-16 23:30:00
5:50 PM,32.0,21.2,64,30.34,10.0,ESE,3.5,-,N/A,,Clear,120,2012-11-16 23:50:00
6:09 PM,30.2,19.4,64,30.33,10.0,SE,4.6,-,N/A,,Clear,130,2012-11-17 00:09:00
6:30 PM,30.2,21.2,69,30.32,10.0,ESE,4.6,-,N/A,,Clear,120,2012-11-17 00:30:00
6:50 PM,30.2,21.2,69,30.32,10.0,SE,3.5,-,N/A,,Clear,130,2012-11-17 00:50:00
7:09 PM,28.4,21.2,74,30.32,10.0,Calm,Calm,-,N/A,,Clear,0,2012-11-17 01:09:00
7:50 PM,28.4,21.2,74,30.31,10.0,East,3.5,-,N/A,,Clear,90,2012-11-17 01:50:00
8:09 PM,26.6,19.4,74,30.31,10.0,Calm,Calm,-,N/A,,Clear,0,2012-11-17 02:09:00
8:29 PM,26.6,21.2,80,30.31,10.0,Calm,Calm,-,N/A,,Clear,0,2012-11-17 02:29:00
8:50 PM,26.6,21.2,80,30.31,10.0,Calm,Calm,-,N/A,,Scattered Clouds,0,2012-11-17 02:50:00
9:09 PM,26.6,21.2,80,30.30,10.0,Calm,Calm,-,N/A,,Scattered Clouds,0,2012-11-17 03:09:00
9:49 PM,26.6,21.2,80,30.30,10.0,Calm,Calm,-,N/A,,Clear,0,2012-11-17 03:49:00
10:09 PM,26.6,21.2,80,30.30,10.0,Calm,Calm,-,N/A,,Clear,0,2012-11-17 04:09:00
10:29 PM,23.0,21.2,93,30.30,10.0,Calm,Calm,-,N/A,,Scattered Clouds,0,2012-11-17 04:29:00
10:50 PM,26.6,21.2,80,30.29,10.0,Calm,Calm,-,N/A,,Mostly Cloudy,0,2012-11-17 04:50:00
11:09 PM,26.6,23.0,86,30.29,10.0,Calm,Calm,-,N/A,,Mostly Cloudy,0,2012-11-17 05:09:00
11:29 PM,26.6,23.0,86,30.29,10.0,Calm,Calm,-,N/A,,Overcast,0,2012-11-17 05:29:00
11:50 PM,28.4,23.0,80,30.29,10.0,Calm,Calm,-,N/A,,Mostly Cloudy,0,2012-11-17 05:50:00